Theta_e
305 299 295 295 299 300 301 302 302 298 299 296 293 291 290 291 290 290 291 291 293 293 293 290 289 289 292 294 295 294 289 291 292 294 296 298 298 300 304 307 309 310 313 315 316 316 317 319 321 321 321 321 321 322 323 323 324 325 326 325 325 326 328 329 328 327 328 326 326 327 326 326 327 327 328 328 328 328 329 329 328 328 327 327 326 326
305 298 297 300 302 302 302 303 300 297 297 295 292 291 290 289 289 291 290 291 292 292 292 290 288 289 290 293 295 292 288 291 291 292 294 295 297 298 300 303 306 309 310 309 311 311 313 315 317 320 321 319 319 320 321 322 323 324 325 325 326 326 326 328 330 329 329 329 329 328 327 327 327 327 326 327 328 329 330 330 329 329 330 329 328 326
297 296 300 301 304 303 302 300 298 297 295 294 291 290 289 289 289 290 291 289 290 290 289 288 287 289 291 293 294 293 292 293 293 294 295 295 295 296 297 300 303 304 306 308 309 310 311 313 315 317 319 321 322 322 321 322 323 323 323 325 326 326 326 327 329 330 329 330 331 331 330 329 327 328 330 330 329 331 331 331 331 331 331 331 330 330
292 297 301 303 303 302 299 297 297 296 295 293 291 289 290 290 290 287 289 288 289 289 288 288 287 290 291 292 292 294 292 293 294 292 293 293 294 295 296 298 299 300 303 304 306 306 308 310 313 315 317 319 321 321 321 321 321 322 322 324 325 325 325 326 327 326 330 330 331 331 329 330 329 324 321 324 323 327 328 329 331 332 332 332 331 331
295 299 303 302 302 300 297 295 296 295 292 293 293 292 288 286 288 287 286 288 290 289 288 287 287 290 292 291 293 295 292 292 293 290 290 291 293 295 296 295 296 299 300 302 303 302 303 305 309 312 316 318 319 321 321 321 321 322 322 323 324 324 324 326 325 326 328 326 325 324 321 323 321 319 321 322 322 325 325 328 328 330 331 331 331 330
294 300 303 301 299 298 297 294 295 295 292 291 291 292 291 288 287 286 288 288 286 287 290 287 283 287 289 290 292 295 290 289 290 291 292 293 292 292 292 294 295 296 298 300 301 302 302 303 306 309 312 315 318 319 321 322 322 323 323 323 323 324 324 325 325 326 326 326 326 323 323 320 321 322 319 321 322 321 322 326 329 330 331 331 332 331
297 297 301 299 298 296 297 297 297 297 294 291 292 293 292 291 288 288 287 287 281 281 289 287 285 284 286 288 290 290 290 291 291 290 292 293 293 291 292 294 294 295 295 295 296 297 299 300 302 306 310 313 316 318 321 322 322 323 323 323 323 323 324 324 324 325 324 326 326 325 326 325 325 325 324 325 326 325 327 327 325 327 326 328 329 330
295 296 297 299 297 296 295 294 297 298 294 291 294 294 292 291 290 288 288 286 282 285 286 286 285 280 282 289 293 290 289 290 290 291 290 291 292 292 292 293 294 295 295 296 296 295 296 298 301 303 307 311 314 317 319 320 321 321 322 322 322 323 322 324 324 324 324 325 325 325 325 326 326 326 326 324 326 327 324 322 323 324 325 326 327 327
296 293 296 296 297 295 295 297 297 299 295 293 291 294 292 292 290 290 288 284 283 283 281 284 285 282 282 286 284 284 289 290 291 291 291 292 292 292 292 293 294 295 296 296 296 296 295 295 297 301 304 309 313 315 317 318 320 321 322 322 322 323 322 323 323 323 323 324 325 325 325 324 325 326 325 321 319 318 318 320 317 319 322 323 324 325
292 297 298 299 296 294 294 296 298 298 291 290 293 293 292 291 291 290 286 285 283 281 280 282 284 281 284 285 286 285 286 290 292 293 292 292 294 294 293 293 294 294 294 294 295 296 296 296 296 299 301 303 309 312 315 316 318 319 321 320 320 321 322 322 322 322 323 324 323 325 324 324 323 322 317 316 314 316 315 320 315 317 320 321 320 321
291 295 299 297 296 294 293 296 299 298 293 294 294 292 290 289 287 286 286 285 283 277 282 283 283 284 280 286 290 288 290 292 290 291 290 290 291 292 293 294 295 294 294 294 294 294 295 294 294 295 298 301 304 308 311 313 315 317 318 319 319 321 322 321 322 322 322 323 324 324 324 324 323 320 315 315 313 313 314 316 314 316 318 319 319 318
290 292 293 292 294 294 298 293 294 294 294 294 290 289 290 287 288 286 284 285 281 280 281 283 283 284 278 282 287 292 287 287 292 291 293 294 294 294 293 294 294 295 294 293 292 293 293 292 293 293 295 298 301 305 308 311 313 314 316 318 318 319 319 320 321 321 322 323 323 324 324 324 324 320 317 317 315 314 316 318 315 316 315 315 315 315
288 290 290 292 294 298 293 293 291 293 293 292 291 291 286 282 283 279 281 278 279 280 280 279 283 280 282 288 287 287 288 288 287 291 294 295 296 296 294 294 294 291 290 291 292 293 292 293 294 294 295 296 299 303 306 309 312 314 315 316 317 317 318 319 320 320 321 322 322 323 323 323 324 321 320 321 320 318 320 319 316 313 314 313 312 312
285 286 288 290 292 295 297 290 287 286 290 290 289 288 285 279 278 277 278 276 276 280 280 279 282 281 287 285 292 294 295 293 290 289 290 291 293 294 294 291 287 287 288 289 291 291 292 293 294 294 295 296 298 301 304 307 309 312 314 315 317 318 318 318 319 320 320 321 322 323 323 323 322 321 321 321 322 319 321 319 317 316 315 313 314 312
280 280 287 288 287 291 296 295 293 291 290 290 292 292 288 285 279 277 279 278 277 277 277 279 280 278 279 284 285 289 292 296 297 293 292 289 289 290 289 287 287 288 289 289 290 291 291 292 293 294 295 296 298 300 302 305 308 310 312 313 314 317 316 316 318 319 320 321 321 322 323 323 322 321 321 321 321 319 320 319 317 317 316 316 314 313
285 283 285 292 288 293 293 292 294 292 290 288 290 291 287 287 285 280 278 278 275 276 275 277 281 281 285 285 288 287 285 285 286 288 288 288 288 288 288 290 291 291 292 292 292 293 293 293 294 294 295 296 297 298 300 302 304 307 310 312 314 316 316 316 316 318 320 320 321 321 321 321 320 319 320 320 319 319 320 318 318 316 315 314 310 306
283 281 285 286 289 293 293 292 292 296 284 289 289 286 289 289 285 280 279 279 276 275 277 277 278 283 284 290 293 293 286 287 285 286 286 289 291 290 290 292 292 293 293 293 293 294 294 293 293 294 295 296 297 297 299 301 302 305 307 309 311 313 314 314 316 318 319 320 319 319 320 320 319 318 318 319 318 318 318 317 316 314 312 309 307 304
283 279 284 285 285 290 288 292 293 293 292 289 285 290 289 290 289 285 280 277 275 276 278 278 281 283 280 283 283 289 291 291 290 287 288 290 290 289 291 293 294 294 293 293 293 292 292 292 293 293 293 295 296 297 298 299 299 301 304 307 309 311 312 313 314 316 317 317 317 317 318 319 319 319 318 318 317 315 313 312 309 307 306 306 304 303
288 278 282 284 286 287 288 291 290 292 293 290 288 294 290 282 282 283 281 275 274 273 275 274 277 279 282 286 283 286 286 291 292 292 288 288 290 291 291 292 292 293 291 292 293 293 292 292 290 292 293 295 296 297 298 299 299 300 302 305 308 310 312 312 313 314 315 316 316 317 316 317 317 318 317 316 314 312 311 308 307 306 305 302 301 299
283 279 281 284 286 285 287 290 283 288 291 291 292 291 290 286 283 281 283 280 279 275 271 273 273 279 282 282 282 288 285 286 288 289 290 291 292 294 294 293 292 293 294 294 294 292 291 289 288 291 293 295 296 297 299 300 300 301 303 304 306 308 309 309 310 311 313 314 314 314 314 315 316 315 314 312 311 310 309 307 306 303 301 300 300 300
282 284 277 283 284 286 283 287 286 288 285 285 286 286 288 286 287 286 283 279 279 271 269 270 271 278 280 282 286 289 290 291 291 292 292 290 290 289 289 290 292 293 294 294 292 291 289 289 289 291 292 295 297 300 301 301 302 302 304 305 306 307 307 308 309 310 311 311 311 310 311 311 311 311 311 310 310 310 307 306 304 303 301 298 298 296
280 281 279 280 281 282 282 286 287 291 291 288 287 286 289 285 282 281 279 281 274 275 273 268 277 280 284 282 287 288 288 287 285 285 286 287 287 288 289 289 290 292 293 293 292 291 290 289 289 289 288 289 296 299 301 302 303 303 303 305 306 306 307 307 307 308 308 308 309 309 309 308 309 309 308 308 307 306 304 303 302 299 297 297 294 295
283 282 282 277 280 283 284 286 285 287 289 289 288 287 289 287 285 280 278 278 276 277 274 271 270 281 285 282 284 286 286 286 284 283 286 289 289 289 288 288 290 291 292 292 291 291 290 290 290 288 289 292 296 298 300 300 302 303 303 303 304 305 305 306 306 306 306 306 306 306 306 305 304 305 304 304 302 301 300 299 297 295 296 294 292 292
289 281 280 280 283 284 283 284 285 285 288 287 288 286 285 286 287 285 282 279 280 276 278 275 273 282 286 284 280 281 281 281 281 282 285 288 289 289 289 288 288 290 290 289 289 289 289 288 288 288 289 291 293 296 298 300 301 302 302 302 303 304 303 303 304 304 304 304 303 302 301 301 301 301 301 300 299 297 295 294 294 294 293 292 292 291
283 281 282 278 276 280 280 284 285 284 285 286 286 287 287 287 288 285 282 281 279 278 281 279 276 284 286 283 283 281 280 282 282 282 283 285 288 288 288 288 289 290 289 289 289 290 288 288 288 290 290 292 293 295 297 298 300 301 301 301 301 302 301 300 301 301 301 300 299 298 299 298 299 299 298 297 295 293 292 293 292 292 291 291 290 290
285 284 283 278 275 274 273 274 277 280 282 282 282 286 288 288 287 285 283 282 280 281 281 278 281 286 285 284 284 283 282 284 284 285 282 283 285 286 287 288 289 290 290 290 289 288 289 290 289 289 289 290 291 294 296 297 298 298 298 299 297 298 296 297 297 298 298 297 297 296 295 296 296 296 295 294 293 292 292 292 291 291 290 291 289 289
282 285 287 285 282 281 283 283 285 287 284 282 284 286 287 288 287 288 285 281 281 283 281 284 286 286 285 288 286 288 285 285 286 286 288 288 287 286 286 287 289 291 291 291 290 290 288 288 289 290 290 290 290 291 294 295 296 295 295 294 294 295 295 294 295 295 296 295 295 294 293 294 294 294 293 293 292 291 291 291 290 290 290 289 289 288
282 284 286 286 284 283 283 283 286 288 284 285 284 285 287 287 286 286 284 283 286 281 278 286 287 285 287 287 287 289 290 288 285 286 288 288 288 287 287 289 290 290 290 290 290 290 291 291 290 289 289 288 289 289 291 292 293 294 294 293 292 292 293 293 293 293 293 293 293 293 293 292 292 292 292 291 291 290 290 290 289 289 288 288 288 288
286 284 285 284 283 281 283 284 287 287 286 286 286 286 285 287 286 284 285 287 286 284 284 285 287 286 286 287 290 291 291 292 288 288 289 288 287 288 289 289 290 290 291 291 291 291 291 291 291 290 289 288 288 288 290 290 290 291 291 292 292 292 291 291 292 292 292 292 292 291 291 290 290 290 289 289 289 289 289 288 288 287 287 287 287 286
286 278 282 283 280 280 281 284 285 285 283 284 284 285 287 286 286 287 287 288 286 286 288 285 283 284 288 285 289 292 294 293 286 286 287 287 290 290 290 290 291 290 290 291 292 292 292 292 291 291 290 289 289 288 288 289 290 291 291 291 290 291 290 291 291 292 292 292 291 290 289 289 289 289 289 289 288 288 287 286 286 286 286 285 285 284
287 277 286 281 276 277 280 282 283 284 284 283 284 285 285 286 287 287 288 288 288 287 288 285 285 287 289 285 286 287 288 287 287 287 289 291 291 289 290 291 292 292 291 291 292 292 293 292 292 291 290 290 290 289 289 290 290 290 291 291 291 291 290 291 291 291 292 291 290 289 289 288 288 288 288 288 287 286 286 285 285 285 284 283 283 283
280 277 280 281 276 274 280 280 280 281 282 282 283 284 284 284 283 285 285 288 287 286 286 285 285 286 286 290 290 291 290 290 290 292 293 292 289 288 290 291 291 292 292 292 292 292 292 292 292 292 292 291 291 290 290 289 290 290 291 291 291 291 290 291 291 292 291 290 288 288 288 288 287 287 287 286 286 285 285 284 284 283 283 283 282 282
280 278 276 277 277 272 279 279 280 279 276 277 281 284 285 286 287 287 288 289 289 289 285 284 286 290 285 289 289 290 291 293 294 294 294 294 290 290 291 292 292 291 292 292 292 291 292 293 293 293 293 292 292 291 291 291 290 290 291 290 291 290 289 290 291 291 290 288 288 288 287 287 287 286 286 285 285 284 283 283 283 282 282 282 282 282
284 284 280 284 280 275 275 278 280 278 270 278 287 289 288 286 287 285 286 287 289 290 289 291 292 286 285 288 290 290 290 292 295 297 298 297 295 290 290 291 291 292 291 291 292 292 293 293 294 293 293 293 293 292 291 290 291 291 290 290 289 289 289 290 290 290 289 288 287 287 287 286 286 285 285 284 283 283 283 283 282 282 282 281 281 281
286 284 282 282 280 276 277 282 280 274 277 285 284 288 291 291 290 288 289 289 290 290 291 291 291 291 289 290 291 292 292 294 294 294 295 293 293 292 292 290 291 291 292 293 291 291 293 294 293 292 291 292 292 290 289 289 289 289 288 288 288 289 289 290 289 289 287 287 287 286 286 286 286 285 284 283 283 283 282 282 282 281 281 281 281 280
286 287 282 277 277 275 274 278 272 276 282 282 282 286 289 291 290 288 286 289 290 290 291 290 292 293 292 289 289 289 290 290 287 286 289 290 291 292 291 292 292 291 291 293 293 293 293 292 293 293 293 291 290 290 290 290 289 289 288 287 287 287 288 288 288 288 287 287 286 286 286 285 285 283 283 283 282 282 282 281 281 281 280 280 280 280
289 288 285 277 273 276 276 279 280 280 282 284 283 282 284 283 284 285 282 286 290 291 291 290 291 292 292 292 291 289 284 286 287 291 288 288 290 290 293 294 294 293 293 293 292 292 291 292 293 293 290 290 291 290 289 289 289 288 287 287 287 287 287 287 287 287 287 286 285 285 285 285 284 283 283 282 282 282 281 281 280 280 280 279 279 279
288 285 282 282 272 274 275 270 271 274 274 282 282 282 287 288 290 290 287 285 290 291 292 291 291 291 292 292 291 290 287 286 287 290 294 292 291 292 291 292 292 291 289 290 289 289 289 289 290 289 291 289 289 289 289 288 289 288 287 287 286 286 286 287 287 287 286 286 285 285 285 284 284 283 282 282 282 282 281 281 281 280 280 279 278 278
283 283 281 284 277 273 274 276 275 274 279 281 283 285 288 288 290 286 282 282 285 290 291 292 291 292 292 291 291 287 287 286 287 291 296 296 293 292 292 291 291 290 288 288 289 290 288 289 289 288 288 289 289 288 288 288 288 288 287 287 286 287 286 286 287 286 286 286 285 285 285 284 284 283 282 282 282 282 281 280 280 279 279 279 278 277
283 280 283 276 271 277 278 274 276 275 278 281 284 284 287 285 290 288 274 277 285 288 291 291 291 291 292 292 288 287 288 286 287 293 293 291 291 290 290 292 291 289 287 285 285 286 286 286 287 287 288 288 289 288 288 288 288 287 287 286 286 286 286 287 287 287 286 286 285 285 284 284 283 283 282 282 282 281 280 279 278 278 278 277 277 276
279 276 280 281 280 276 280 272 270 277 281 280 282 284 285 290 289 280 277 283 281 282 284 289 290 291 291 287 287 286 288 293 294 291 282 286 288 289 286 282 284 283 285 284 284 286 286 287 289 290 290 290 288 288 288 288 288 287 287 287 286 286 287 288 288 286 286 285 284 284 283 283 283 282 282 282 281 280 278 278 278 277 277 275 275 274
277 280 275 278 279 279 279 278 277 277 279 282 280 285 287 288 277 281 287 282 281 282 283 287 288 289 288 288 288 290 293 291 287 280 285 285 287 285 283 283 284 284 283 283 284 285 285 286 287 286 286 286 287 287 287 288 287 287 287 286 286 287 287 287 286 285 284 284 283 283 282 282 282 281 281 279 279 277 277 277 277 276 276 275 274 273
282 281 279 280 276 272 270 276 270 274 283 287 285 284 284 284 284 287 284 283 282 281 284 285 287 287 288 288 288 289 288 286 288 289 286 284 284 285 284 284 284 284 284 284 285 284 285 286 285 285 284 284 285 286 286 287 287 286 286 286 286 285 286 285 284 284 283 282 282 281 281 280 280 279 278 278 278 277 276 275 275 275 274 274 273 272
285 281 277 281 284 280 279 277 278 283 284 288 290 286 287 286 283 284 288 288 284 281 284 285 285 284 284 287 286 286 286 286 286 284 286 284 283 281 281 281 282 282 282 281 283 283 284 284 283 283 282 283 284 285 286 287 286 286 286 286 284 284 283 283 282 282 281 280 280 279 279 278 278 277 277 277 277 276 275 274 274 274 274 274 273 273
286 286 286 282 284 284 282 285 283 282 287 289 292 289 292 292 284 283 285 288 287 284 282 284 285 283 284 286 285 285 284 285 287 285 285 285 284 282 282 282 282 282 282 282 282 281 282 285 283 282 281 282 283 284 285 286 287 285 285 284 282 283 282 281 281 281 280 279 278 278 277 277 276 276 276 276 276 275 274 273 273 273 273 273 274 274
282 286 279 284 281 279 282 282 280 281 283 286 284 282 290 292 283 281 283 286 285 283 285 284 282 284 283 283 286 282 284 284 284 284 283 283 282 280 279 279 278 277 278 278 279 279 280 280 281 281 281 280 280 282 283 284 285 285 284 281 281 281 281 280 280 279 278 278 277 276 275 275 275 275 275 275 275 275 275 274 274 274 273 274 274 274
282 281 284 282 280 285 284 288 284 284 283 286 289 283 281 287 287 282 281 284 285 283 284 281 283 284 285 284 286 285 284 283 283 283 282 282 280 279 279 279 278 278 279 279 279 278 280 281 281 280 280 281 279 280 281 281 281 282 279 279 279 279 279 279 279 278 276 276 275 274 274 275 274 274 273 274 274 274 274 274 274 274 273 274 274 274
283 283 287 279 283 286 287 286 285 286 287 288 288 286 288 287 285 283 283 283 281 282 283 283 281 281 282 284 285 284 283 282 283 282 282 282 281 278 278 278 278 277 276 276 277 277 279 280 280 279 279 280 279 278 279 279 277 277 278 278 278 278 278 278 278 277 276 275 274 274 274 274 273 273 273 273 273 273 273 273 274 274 274 274 274 274
284 286 286 284 284 286 283 281 282 284 285 284 284 283 284 287 289 286 282 281 282 283 282 280 279 281 283 285 284 284 283 282 283 282 282 280 279 278 278 278 277 276 275 276 275 276 279 278 278 278 278 277 276 276 276 275 275 276 277 278 277 278 278 277 276 276 274 274 273 273 273 273 273 273 273 272 272 272 273 273 273 274 275 276 277 277
285 285 284 285 284 282 286 285 285 285 282 286 286 288 288 286 287 287 283 283 282 283 281 283 281 279 279 280 282 283 286 284 280 280 280 281 280 279 278 277 275 273 272 272 272 272 273 274 275 276 275 275 274 274 274 273 273 274 276 276 276 277 277 276 275 274 273 273 273 272 272 272 272 272 272 272 272 271 270 274 276 275 275 275 276 277
288 287 286 285 285 285 288 286 290 293 291 289 291 290 290 287 286 285 285 287 286 285 284 284 282 281 281 279 277 281 282 282 280 280 279 278 279 279 279 277 276 274 273 272 273 272 272 272 272 273 273 273 273 272 272 272 272 273 273 275 276 277 276 275 275 274 273 272 272 272 272 272 272 271 271 271 271 271 271 272 274 276 276 276 276 277
Wind_Speed
4 9 10 14 10 9 10 10 8 7 8 5 4 4 5 6 3 1 0 1 0 2 5 6 6 9 12 14 14 6 2 5 6 7 9 9 9 9 9 10 10 11 14 6 8 8 9 9 9 8 8 8 8 9 10 11 11 12 12 10 11 10 9 9 9 9 9 9 8 7 9 8 6 6 7 6 7 6 5 6 6 7 4 5 5 5
4 11 14 10 9 12 12 11 6 5 4 7 6 5 4 4 6 2 1 1 1 2 3 4 6 9 12 14 16 4 2 10 11 11 11 12 11 9 9 10 12 14 4 7 10 7 6 8 9 9 9 9 11 11 10 13 13 13 11 12 12 9 10 11 11 10 9 9 8 7 7 6 6 7 7 7 7 9 7 7 7 6 6 7 6 6
9 18 11 7 9 11 11 9 10 11 8 5 6 5 4 4 3 6 3 3 1 1 6 3 6 10 12 14 14 9 11 10 10 11 12 11 9 9 10 11 12 7 10 9 12 7 8 9 8 9 10 11 13 12 13 13 12 12 11 13 12 11 11 11 11 10 10 9 9 9 7 8 6 7 8 9 8 8 9 9 8 6 10 9 7 6
9 9 9 10 11 12 7 10 11 8 7 7 5 6 8 5 7 3 0 3 1 1 3 3 8 11 13 14 16 13 10 11 11 10 11 8 10 11 14 14 11 10 11 13 15 12 9 10 9 9 10 11 10 12 12 12 13 11 11 12 12 11 11 10 11 11 11 10 10 9 8 8 8 5 5 4 4 5 6 7 7 6 5 7 8 8
6 6 9 13 13 13 13 10 12 9 8 3 9 7 5 5 2 4 1 1 0 2 1 2 6 11 12 13 15 9 9 10 9 5 8 8 9 9 4 3 9 14 13 14 11 9 10 10 12 13 13 11 13 14 14 13 13 11 15 15 14 12 12 11 11 12 9 7 7 5 3 4 3 2 3 4 4 6 6 6 6 6 7 7 7 6
2 6 10 12 11 10 11 10 11 10 7 5 2 3 6 7 8 2 2 5 6 4 2 3 3 10 6 13 17 10 1 6 7 9 12 12 11 8 10 12 9 10 10 13 14 12 11 12 10 9 10 11 12 12 12 12 14 14 13 13 12 11 11 12 12 12 10 10 10 9 8 7 6 7 6 8 9 5 5 6 6 7 7 6 5 6
4 2 10 15 14 12 13 11 10 10 7 7 6 9 9 9 8 5 2 4 2 4 2 2 7 9 5 10 6 4 6 11 8 8 13 11 10 8 11 12 11 12 12 10 10 7 8 11 10 12 12 14 13 14 12 12 14 14 12 12 13 13 12 12 12 12 11 11 10 13 12 11 10 9 7 6 7 8 8 6 6 6 5 6 6 7
5 7 5 10 12 13 10 9 8 12 7 5 4 13 9 10 9 6 7 4 2 1 7 4 3 4 9 17 11 7 10 10 12 11 10 10 9 10 11 13 12 12 12 12 13 13 12 11 13 15 16 14 16 15 13 14 12 13 14 13 14 12 12 11 12 13 13 13 12 12 12 11 11 11 10 9 9 8 7 7 7 5 5 6 6 6
14 10 11 14 11 11 12 8 10 12 7 2 6 11 9 9 5 6 7 4 2 2 7 5 4 1 9 5 1 3 11 13 15 12 10 11 11 12 13 14 14 14 14 13 12 13 14 15 15 14 13 15 13 11 13 13 12 12 13 13 12 12 12 11 13 13 13 13 13 12 11 11 10 10 8 7 5 7 6 8 5 5 5 5 5 5
1 9 11 12 11 9 3 7 12 11 6 2 7 9 9 10 6 7 4 4 1 1 11 6 5 6 13 4 4 1 8 15 14 12 10 11 13 13 13 13 14 12 10 9 13 13 12 12 12 11 9 6 12 11 9 8 8 9 9 11 12 13 11 11 12 13 13 14 12 12 12 13 10 8 5 7 7 7 6 8 7 5 5 4 4 4
1 5 1 6 8 5 6 5 11 7 7 11 13 14 9 7 5 3 4 3 1 6 9 8 9 7 8 7 11 9 13 8 6 7 6 7 8 10 11 12 12 12 12 11 11 10 10 6 7 6 12 13 7 7 8 8 9 9 10 11 12 13 10 11 12 13 14 13 13 13 13 14 13 11 9 8 8 7 7 7 7 7 6 5 5 4
3 2 3 1 2 3 9 6 5 7 15 12 4 8 9 5 5 5 3 2 2 7 2 4 8 10 11 5 6 11 2 6 8 8 11 11 12 12 10 12 13 12 10 8 7 10 10 6 6 5 11 11 10 7 9 10 8 9 10 11 13 11 11 11 12 13 13 13 13 12 13 14 13 12 11 12 11 11 11 9 9 6 6 5 5 4
3 5 1 2 5 10 6 12 2 8 6 6 10 11 9 3 2 1 1 4 8 7 1 4 10 0 19 15 7 8 8 7 8 8 9 11 13 13 11 12 8 4 4 7 9 9 7 10 11 11 13 8 9 13 13 13 12 11 11 13 14 14 13 13 12 14 14 13 13 13 13 13 11 12 13 13 12 12 11 9 9 8 7 6 6 5
1 1 1 3 3 4 12 13 7 7 8 11 13 11 9 5 5 5 3 2 5 3 2 4 1 7 9 1 17 21 17 12 10 11 11 12 12 12 10 5 4 5 6 8 8 8 8 10 10 11 11 10 11 12 11 11 11 12 12 13 15 16 13 13 13 14 14 14 13 13 13 12 11 11 12 11 11 11 9 9 10 10 9 9 9 9
10 2 9 11 6 4 10 9 14 7 13 9 4 10 8 6 6 8 6 9 6 2 0 4 4 9 3 4 2 6 9 14 14 11 11 9 9 11 8 7 8 8 8 7 8 9 9 9 9 9 9 9 9 9 9 9 10 10 11 12 14 13 12 13 14 12 14 13 12 12 12 11 10 11 10 10 10 10 10 8 10 9 9 10 9 9
12 2 3 7 1 9 10 2 7 11 5 2 1 4 5 9 2 3 4 2 2 2 0 3 8 3 5 4 8 5 6 7 8 11 8 12 10 9 10 11 11 10 10 7 8 9 10 8 7 8 8 9 8 9 8 9 8 9 12 12 14 15 13 13 13 13 13 12 11 12 12 12 11 9 9 8 8 9 10 10 10 9 9 8 8 6
4 5 1 5 2 14 11 7 5 14 10 7 5 7 4 2 6 4 3 1 2 3 8 4 7 8 6 11 13 13 6 9 5 8 8 13 14 8 10 12 11 11 9 7 8 8 7 6 7 7 7 7 7 8 9 9 8 10 10 10 12 11 9 11 12 12 11 11 11 12 12 11 10 10 11 10 11 10 8 9 8 9 8 8 9 8
11 3 1 2 7 5 1 5 7 4 4 8 8 10 3 2 3 4 4 1 1 5 6 4 13 8 3 13 2 8 13 10 8 8 9 10 8 9 11 11 12 9 5 4 6 6 6 5 5 5 4 5 6 7 7 8 7 6 7 8 9 8 10 10 10 10 10 10 11 11 11 11 11 11 11 10 11 9 9 7 7 7 8 9 9 9
9 6 1 1 3 1 2 6 5 3 2 7 5 7 10 5 5 3 3 3 4 4 5 4 5 7 10 12 1 1 6 12 14 11 8 9 9 12 12 13 10 4 4 5 7 7 6 6 4 4 5 4 4 4 5 4 5 5 5 5 7 9 9 8 8 8 7 8 9 9 10 11 10 9 9 8 9 10 10 10 9 9 8 9 9 9
4 8 1 1 5 2 2 6 12 10 1 2 3 8 1 3 1 7 8 0 3 5 1 7 2 8 8 8 4 8 4 8 8 8 10 12 13 10 8 8 7 6 7 8 7 6 6 5 5 5 5 5 5 5 5 5 5 6 6 6 6 5 5 6 8 8 9 8 8 8 7 8 8 9 9 9 10 10 10 10 11 10 10 10 8 8
3 2 7 2 2 5 7 8 11 13 12 4 4 6 3 0 1 3 0 5 5 4 5 2 6 8 8 8 9 12 13 14 13 13 9 7 7 7 7 7 6 6 6 6 5 4 5 5 4 4 4 4 3 4 5 5 5 5 5 6 5 7 6 7 7 7 7 7 8 9 9 9 8 9 9 10 10 11 10 10 11 11 11 9 9 10
5 1 12 6 4 8 5 1 4 10 12 12 14 15 17 13 8 9 7 2 2 3 5 4 12 5 6 3 9 9 4 3 4 2 7 6 7 8 7 6 6 7 7 6 4 5 5 4 3 2 2 2 4 5 5 5 4 5 6 5 5 6 7 7 7 7 6 7 7 9 8 9 7 9 9 10 9 10 10 11 10 10 10 10 8 9
6 3 10 8 5 7 2 3 3 4 4 5 5 7 7 5 1 4 8 5 2 4 6 3 2 11 4 9 9 7 7 7 4 2 8 8 8 8 7 6 7 7 7 6 6 5 5 4 5 4 4 5 6 5 5 4 5 5 5 4 4 6 6 6 6 6 7 7 8 8 8 8 8 8 10 10 8 10 9 9 10 9 11 10 9 7
9 6 8 3 4 3 2 2 0 3 5 4 5 1 4 11 8 2 1 3 8 2 3 3 3 11 1 1 4 5 2 4 3 4 9 9 8 6 7 7 7 6 6 5 4 4 4 3 3 3 4 5 5 4 5 5 5 5 5 5 5 6 6 5 6 6 6 6 6 7 7 8 7 9 9 10 9 10 9 9 10 9 9 10 10 10
5 2 8 10 5 2 2 1 2 1 1 8 7 5 4 2 2 3 3 1 1 9 6 6 8 16 3 1 1 0 2 4 4 4 5 7 8 7 7 6 6 6 5 4 5 5 4 4 5 6 5 5 4 4 5 5 6 6 6 6 6 5 5 5 5 6 6 7 8 7 8 8 8 9 9 9 9 10 9 9 10 9 11 10 10 10
6 8 10 10 13 12 9 10 12 14 13 2 2 8 10 11 9 6 7 4 5 6 12 8 13 8 2 3 3 1 2 1 4 4 2 7 8 9 7 6 6 5 6 5 5 3 6 6 3 3 4 5 5 6 5 5 5 5 4 5 4 4 4 4 4 5 7 6 8 8 8 8 7 9 10 10 9 10 9 9 10 10 8 11 12 10
4 5 9 12 17 18 19 7 4 13 9 11 16 18 16 13 12 10 5 5 16 10 12 18 21 12 5 9 6 5 1 1 3 4 5 6 4 5 5 5 6 5 5 5 6 5 2 3 7 7 6 6 5 5 5 5 5 4 4 3 3 3 5 4 4 5 6 7 7 8 7 8 8 8 9 9 10 8 9 9 9 10 11 9 11 11
4 7 16 13 5 2 3 3 13 22 20 17 14 15 16 16 12 12 13 20 4 12 8 20 17 9 20 2 6 9 10 2 4 3 3 3 4 4 7 6 6 5 5 4 5 6 8 7 5 7 7 6 7 6 5 4 4 5 6 6 4 4 4 5 5 5 5 6 7 8 8 6 7 7 7 8 9 9 9 9 9 9 9 10 11 11
8 12 7 5 1 3 4 9 15 16 15 15 20 20 19 20 17 19 23 14 8 13 19 4 7 18 10 9 11 8 9 13 4 2 3 4 5 4 4 6 6 7 6 6 7 7 7 9 8 8 8 8 6 8 7 5 5 3 3 3 5 5 5 4 5 6 6 5 7 6 7 6 6 6 7 8 9 9 9 9 9 9 9 9 9 8
4 1 1 3 2 4 3 7 6 9 4 5 10 14 19 20 24 25 21 13 11 13 18 7 3 10 11 6 7 11 12 11 4 1 1 4 7 4 5 7 9 7 6 8 8 8 9 9 8 9 8 8 9 9 8 7 7 6 6 6 4 5 4 5 5 7 6 6 6 6 6 6 7 7 8 9 9 10 11 10 9 10 10 9 8 7
6 2 7 4 4 3 3 4 3 8 9 7 8 12 15 18 20 23 20 17 15 16 19 6 10 22 11 7 6 5 7 6 5 8 9 9 6 4 5 6 8 10 7 7 8 9 8 9 9 7 9 10 10 11 10 9 8 7 7 7 8 7 7 6 6 6 7 6 6 7 7 7 7 8 8 8 9 10 9 10 9 9 10 8 8 9
6 1 2 4 5 0 2 4 4 4 3 7 11 15 17 17 17 18 16 17 15 23 13 8 15 23 3 14 8 10 7 6 10 12 12 7 5 5 7 8 8 9 9 8 8 7 8 9 10 11 13 12 10 10 9 9 8 8 9 8 8 7 7 7 7 7 6 7 7 7 8 7 8 8 8 8 9 9 9 9 10 10 10 10 11 9
4 5 5 5 6 1 4 3 6 5 3 6 13 24 22 17 17 13 17 16 21 17 8 16 26 12 5 7 7 8 12 16 17 14 12 14 6 9 10 10 9 8 9 10 9 8 9 11 12 12 11 8 10 11 12 10 9 11 10 9 8 6 7 7 7 7 7 7 8 8 7 8 8 8 9 9 9 9 9 10 9 10 10 10 10 10
10 11 9 8 8 6 3 3 3 4 1 15 8 9 20 23 24 20 22 23 20 16 21 20 19 2 5 8 13 11 11 15 17 18 17 15 12 8 9 8 9 10 8 9 10 8 8 8 9 9 9 10 10 10 8 9 11 9 8 8 8 9 8 8 7 7 8 8 8 9 9 9 9 9 9 9 9 9 10 9 10 9 9 9 9 10
15 10 8 3 7 7 5 6 7 4 18 5 1 10 23 27 25 28 23 16 21 20 22 18 16 14 10 9 8 11 13 15 13 13 13 12 9 8 9 9 10 10 12 12 9 8 10 11 7 6 7 8 8 7 8 8 6 7 7 8 9 8 9 8 8 7 8 9 9 9 9 10 10 10 10 10 9 9 9 11 10 9 9 9 10 10
12 13 7 2 6 5 3 7 6 18 5 4 2 6 10 12 13 12 13 15 17 20 24 24 24 19 13 8 9 8 10 9 5 7 10 8 7 9 9 10 11 11 11 12 12 12 10 8 9 9 9 6 7 9 9 10 8 9 9 7 9 9 8 8 8 8 8 9 9 10 10 11 11 11 11 11 10 10 10 10 10 11 9 8 7 6
16 9 8 6 1 10 8 15 14 5 9 8 3 3 6 7 8 14 14 20 19 18 17 19 20 17 17 12 12 9 4 2 5 10 5 8 10 11 15 14 12 12 13 12 7 7 4 5 7 8 4 6 8 9 9 8 9 9 9 9 8 9 9 9 10 10 10 9 9 10 10 10 12 12 12 12 12 12 11 12 11 9 7 9 8 9
6 12 5 11 3 6 8 4 4 5 9 11 3 3 7 8 13 14 12 12 8 17 18 20 19 17 16 14 12 12 2 3 12 12 14 13 13 14 12 9 7 7 4 0 1 4 5 5 4 4 7 7 8 8 8 9 10 10 10 10 10 10 10 10 11 10 11 10 10 10 10 10 12 12 12 12 14 13 11 9 8 9 8 11 11 9
3 3 4 10 6 5 6 11 10 11 15 5 7 9 10 10 12 7 5 14 5 16 19 20 19 17 18 17 17 6 7 9 14 13 16 14 10 9 8 8 9 8 5 4 5 6 6 6 6 5 5 7 8 8 8 10 10 10 10 9 10 10 10 11 10 11 12 11 10 10 10 10 10 11 12 13 12 11 12 12 11 8 7 7 8 8
8 6 7 3 4 7 9 7 11 6 6 3 7 6 9 6 11 9 1 9 7 13 11 15 20 21 19 17 6 9 11 13 11 17 11 5 6 8 10 11 9 6 4 2 3 3 3 4 6 5 6 9 9 9 11 11 11 10 10 9 9 11 13 13 12 11 9 9 11 10 10 9 11 10 11 12 10 9 9 8 9 9 9 8 7 8
6 1 6 16 8 4 5 5 3 7 4 4 7 6 9 10 10 8 12 9 4 7 6 10 14 14 12 6 9 9 11 16 17 7 3 1 2 1 1 3 1 1 1 1 2 1 4 5 6 9 9 7 8 9 10 10 11 11 10 10 10 14 12 10 8 9 9 9 9 10 10 8 10 11 9 8 9 9 8 8 10 10 10 10 8 8
7 7 4 4 9 12 10 7 9 6 8 8 2 11 11 9 5 17 6 3 4 4 5 8 10 11 8 12 11 13 15 11 3 2 2 2 2 0 1 1 2 3 1 0 0 2 3 3 2 2 2 3 6 7 8 9 10 9 8 9 11 8 3 5 6 7 7 8 8 8 8 8 7 8 8 8 9 10 9 6 7 9 10 9 10 11
15 12 13 13 3 6 3 7 1 10 6 14 12 3 5 8 6 6 2 1 2 2 7 4 10 7 9 10 11 11 4 1 6 8 4 1 1 1 1 2 2 2 3 3 3 1 4 4 4 3 4 4 6 6 6 7 7 6 5 8 5 4 6 6 7 7 7 7 8 8 8 7 9 8 7 8 9 10 10 8 9 9 9 11 10 11
8 10 7 9 11 16 13 12 13 5 8 13 22 14 11 8 2 4 7 3 1 3 6 6 6 5 5 8 8 9 9 7 5 5 2 2 1 1 1 2 2 2 1 0 1 3 5 6 5 5 3 4 5 6 7 9 9 7 8 8 5 7 7 7 7 7 7 7 7 7 7 7 8 7 7 9 9 9 11 10 9 9 9 10 11 11
15 17 10 13 8 10 12 13 0 3 10 11 10 6 14 14 5 5 2 6 6 4 4 3 6 5 8 7 6 6 5 7 7 3 6 5 5 5 5 4 3 4 3 4 3 2 4 7 7 6 4 3 5 5 6 6 8 8 8 5 7 8 9 9 9 9 9 9 8 8 7 7 7 8 8 8 10 11 10 10 10 10 8 9 9 9
1 6 4 7 4 3 4 3 2 2 4 6 2 2 9 15 3 3 4 4 3 5 9 6 5 7 6 5 6 3 6 4 5 5 4 3 3 3 3 4 2 2 2 2 2 2 4 5 6 6 6 3 3 4 4 4 5 9 5 6 6 7 8 9 9 9 9 8 8 8 8 9 7 7 7 8 7 8 9 12 12 11 10 9 9 9
2 3 4 6 2 7 14 13 7 6 3 11 11 1 2 3 8 6 4 3 3 7 7 2 6 8 9 8 7 6 6 5 5 5 4 4 3 4 4 4 3 2 2 3 2 3 5 5 6 6 5 6 3 4 4 5 3 4 6 7 6 7 8 8 8 8 7 8 7 6 7 9 8 7 7 7 6 6 7 7 8 9 10 10 10 9
4 5 8 4 10 15 18 8 11 9 10 13 12 7 4 7 6 6 4 1 3 4 4 5 4 5 6 6 8 7 6 5 6 5 4 4 4 3 4 4 4 3 2 2 2 3 4 4 5 5 5 5 4 3 4 4 4 5 7 7 7 8 8 8 8 9 8 8 7 7 7 7 8 9 7 7 8 8 7 6 7 9 12 13 13 12
5 10 11 12 11 10 2 2 1 3 1 3 3 4 4 8 13 10 6 4 4 6 4 2 0 4 8 7 7 6 5 6 6 6 6 5 5 5 5 6 4 4 3 4 2 2 4 4 5 4 4 3 2 3 4 4 4 5 7 7 8 9 9 8 7 7 8 7 7 7 6 6 7 7 7 7 5 4 4 8 9 8 6 4 4 7
9 16 6 8 10 9 17 13 12 8 5 8 9 15 14 10 8 8 4 3 4 5 5 7 3 0 3 1 5 7 8 6 5 5 6 5 6 5 5 5 5 4 3 2 2 3 4 4 4 4 4 3 2 3 4 4 4 3 4 6 6 8 9 8 7 7 7 6 6 6 6 6 6 6 6 7 7 6 3 2 4 3 5 5 3 2
17 15 11 15 16 17 11 8 16 16 11 9 18 16 13 8 9 10 12 12 11 7 8 9 6 2 2 2 0 5 4 4 5 4 4 4 4 4 5 7 7 5 4 4 4 4 4 4 4 4 4 2 1 2 3 3 3 4 4 5 6 7 8 9 8 7 6 7 7 8 8 7 7 7 6 6 7 6 6 4 2 3 3 3 3 3
Wind_Direction
142 162 185 201 182 162 174 184 174 183 175 161 142 150 180 175 263 348 206 161 132 34 251 245 253 259 274 276 271 279 150 253 261 244 236 236 227 224 227 228 233 237 238 238 235 224 215 211 207 203 197 204 205 205 201 201 204 205 205 192 208 203 196 192 186 187 190 196 201 207 205 207 191 201 210 212 210 203 203 188 194 166 179 179 178 180
165 194 210 197 167 166 171 185 149 115 117 142 162 163 184 149 229 226 192 275 331 134 284 293 300 270 267 264 267 265 184 240 231 233 237 236 228 225 220 233 231 235 279 268 252 226 211 211 205 199 201 197 203 212 202 207 206 206 201 203 208 192 198 199 194 191 195 195 194 192 197 183 183 193 204 214 208 208 202 190 194 178 166 175 183 181
188 209 186 147 156 160 177 166 158 159 153 146 149 164 144 231 237 272 262 327 294 93 266 307 296 282 276 273 274 248 227 237 229 217 226 224 229 225 223 231 237 230 237 240 247 225 220 216 211 205 207 208 211 210 209 212 207 204 203 211 207 199 197 201 197 194 201 198 197 195 191 188 197 207 205 208 204 202 202 200 193 208 178 180 183 182
194 223 150 152 142 158 163 160 162 159 161 154 104 144 206 174 165 294 285 316 309 199 281 310 304 289 283 277 267 259 220 243 234 217 232 212 217 216 220 218 222 228 235 237 233 224 215 214 216 211 211 211 207 216 216 212 211 207 210 210 205 202 198 199 199 200 200 194 193 198 191 196 191 187 196 194 163 187 191 198 199 212 217 196 193 192
174 113 133 139 158 153 164 172 163 169 192 205 182 181 129 142 205 145 218 296 337 344 207 18 294 279 259 271 275 254 221 240 251 232 251 247 236 235 260 260 215 223 223 236 240 217 210 214 216 210 210 204 209 213 212 208 208 209 211 208 202 200 200 200 197 198 188 168 170 152 93 129 109 75 167 165 188 191 188 187 185 202 196 201 202 191
111 170 149 153 157 161 152 176 188 163 201 192 262 169 151 136 110 75 9 52 20 343 343 78 332 258 246 233 250 253 241 241 241 230 242 236 229 230 235 235 233 235 228 228 234 220 208 214 219 215 213 213 219 220 216 210 213 212 213 205 201 201 200 200 197 190 180 183 177 170 171 170 187 197 171 193 183 161 168 187 197 200 194 188 195 189
164 203 165 164 164 167 172 182 185 168 187 169 227 149 147 150 128 122 71 83 278 205 257 26 211 274 344 291 254 282 270 254 260 221 241 240 236 223 228 234 230 225 233 237 247 234 210 216 208 213 210 212 214 220 209 211 215 214 213 206 201 200 201 196 191 184 183 187 188 185 187 190 193 200 206 188 179 179 191 191 196 201 198 196 196 208
142 159 166 156 153 167 173 188 187 175 148 214 175 154 145 141 151 151 101 112 221 269 284 235 169 261 295 262 265 269 263 266 269 255 250 253 243 229 229 232 229 228 226 225 228 226 222 215 205 212 211 207 212 211 203 212 210 207 209 205 204 203 199 194 187 186 187 188 189 192 196 197 201 203 201 182 187 185 175 174 182 179 198 203 208 205
156 161 167 160 163 169 191 184 149 175 163 212 168 145 158 148 126 86 94 114 189 43 276 184 121 287 242 273 194 159 259 253 251 252 242 250 243 238 234 233 231 228 224 218 225 223 217 216 214 215 211 216 217 210 208 210 204 206 208 209 205 204 199 195 189 188 190 191 189 192 194 200 208 203 197 170 157 162 170 159 162 179 187 194 198 196
335 173 171 154 155 184 136 132 155 155 128 27 105 78 77 77 72 98 97 74 328 92 255 172 174 221 273 259 271 197 244 248 243 244 239 233 239 235 233 236 234 235 233 223 226 230 226 221 221 216 225 227 218 216 215 212 204 207 206 209 205 208 200 194 191 190 191 193 190 194 196 200 199 192 154 154 159 174 173 173 175 173 174 169 140 174
164 340 325 127 186 154 131 129 156 143 90 130 105 93 74 55 70 39 80 99 50 263 267 123 190 183 290 230 217 197 225 229 259 268 268 264 259 251 241 237 235 231 226 223 224 232 237 231 227 205 216 225 218 212 207 206 202 200 200 204 208 211 200 194 192 189 194 194 194 197 196 198 196 187 156 158 164 157 169 164 160 167 166 152 150 155
37 46 123 264 126 129 112 84 23 113 136 127 121 122 99 32 22 44 355 11 180 248 65 199 156 164 231 265 221 228 242 190 198 225 239 248 250 244 234 233 234 230 226 219 219 234 232 238 240 211 228 223 214 198 207 208 197 197 200 197 206 207 202 196 194 193 197 194 198 200 196 197 196 182 169 170 168 175 170 172 163 170 148 139 142 149
84 159 263 93 282 140 134 109 112 134 156 109 127 132 130 147 94 237 38 235 205 245 221 156 145 120 238 241 281 257 252 258 240 227 233 237 241 239 239 236 243 267 239 216 223 228 222 218 219 215 227 216 206 208 206 201 197 198 196 196 200 206 199 198 194 196 196 195 198 197 197 199 193 187 186 187 185 179 177 172 159 151 150 148 150 160
327 357 54 186 66 249 149 145 155 146 190 151 153 154 143 148 173 199 189 310 313 249 242 134 219 257 277 278 231 239 237 237 238 230 232 238 250 262 258 263 289 269 247 237 231 232 227 221 223 220 222 213 214 214 207 203 199 197 197 198 200 208 196 196 195 197 196 199 196 194 196 196 188 189 186 190 185 184 182 172 167 169 166 165 174 168
133 205 235 171 198 217 181 174 171 146 154 175 146 169 175 156 165 199 177 199 208 210 196 280 97 235 137 249 298 259 255 247 244 245 246 253 255 255 263 280 273 265 252 233 237 234 232 232 226 224 221 221 220 218 211 206 207 197 200 198 204 205 198 196 198 195 198 198 195 195 196 193 187 187 187 187 183 177 176 175 171 173 168 167 170 171
187 152 304 164 274 151 170 166 120 116 88 329 228 34 138 212 99 152 203 159 185 181 355 192 213 191 200 255 297 226 270 288 270 271 266 263 256 256 271 260 252 244 241 222 232 241 242 237 235 229 224 220 215 215 213 213 207 203 205 201 203 203 196 194 194 198 197 195 192 192 192 192 186 185 182 180 175 179 177 172 172 171 170 161 141 133
127 199 17 116 40 165 180 149 156 152 172 186 126 213 197 81 95 105 34 27 74 47 250 167 294 270 311 282 249 269 234 250 266 263 251 250 249 244 250 252 249 246 237 224 230 240 244 238 234 229 226 221 213 210 210 209 205 210 206 202 204 204 194 197 198 196 194 191 188 193 191 186 183 180 182 180 177 175 173 168 167 163 156 142 139 143
145 156 21 102 163 229 24 165 163 205 121 114 191 199 114 68 92 134 202 39 196 219 261 143 231 267 65 278 345 232 247 261 268 263 248 245 253 267 255 253 248 250 259 261 259 255 246 237 225 217 238 235 228 216 205 205 202 216 217 211 207 200 196 194 192 195 192 188 189 188 190 187 185 183 182 175 170 162 152 145 130 125 138 150 146 145
123 73 270 285 160 141 53 109 156 311 198 157 173 163 147 202 207 227 102 214 195 223 264 276 259 263 203 247 19 41 217 251 262 263 263 271 251 246 256 262 274 318 312 280 257 245 237 226 221 195 208 214 229 240 233 201 182 206 216 213 207 203 201 191 190 192 192 190 189 188 187 184 183 181 175 169 159 155 155 153 149 151 146 132 138 138
58 125 72 308 150 213 140 170 185 177 286 30 121 186 202 83 334 156 204 133 107 243 197 287 57 245 196 229 183 256 249 248 261 277 267 252 249 250 258 268 274 262 241 239 242 237 228 229 213 191 187 181 193 197 199 187 177 194 203 194 199 197 182 177 187 187 190 188 182 179 178 182 177 170 164 160 158 159 159 157 148 141 144 150 143 141
99 96 138 189 234 135 182 206 195 166 159 158 158 183 217 222 274 110 332 158 178 182 193 255 306 262 251 209 185 215 215 220 227 245 252 266 300 312 286 278 283 274 264 255 245 238 244 243 228 195 192 182 186 170 169 178 181 182 180 188 183 179 177 186 193 188 192 174 180 172 176 171 165 163 160 158 164 158 156 154 148 152 149 140 145 139
84 86 138 152 126 201 272 191 180 184 190 176 174 186 186 168 158 169 233 93 137 130 225 149 253 274 264 168 208 224 256 341 7 25 299 289 284 286 281 275 261 272 262 252 233 214 221 245 252 248 216 225 174 163 171 166 158 170 186 193 177 180 189 187 187 188 175 178 170 176 169 166 163 157 155 156 157 152 154 151 148 141 142 144 144 143
140 99 112 150 210 170 213 175 230 192 181 198 159 208 177 192 113 180 195 223 52 249 112 168 18 277 196 199 201 214 218 235 230 192 271 274 265 268 275 266 271 251 259 243 220 214 211 197 202 205 200 178 179 175 171 170 175 176 181 186 192 186 193 186 183 175 171 170 170 169 164 158 158 154 155 152 153 150 150 144 137 146 142 140 138 134
87 101 91 48 91 266 315 285 336 171 164 224 255 135 152 195 195 166 83 172 180 175 225 254 256 261 266 185 195 212 237 268 278 223 248 272 282 289 278 288 280 282 259 255 248 224 209 202 176 179 199 196 191 186 181 180 178 174 182 193 191 195 184 178 171 166 164 163 161 155 152 158 152 152 152 151 150 146 143 141 142 138 133 139 138 134
96 252 116 126 128 208 332 16 206 325 192 213 192 182 189 139 209 189 106 85 302 214 187 169 232 260 254 324 230 114 328 302 301 272 218 266 285 281 289 291 294 278 272 257 245 230 202 176 193 211 204 197 198 202 188 189 191 179 187 189 196 192 179 169 166 162 161 160 152 154 155 153 156 153 151 145 144 142 140 143 139 133 137 137 129 131
95 166 141 145 162 176 183 196 197 198 197 149 134 169 201 189 179 156 225 197 243 222 166 200 240 235 251 280 283 59 67 359 315 296 250 219 257 286 300 298 290 283 261 253 252 237 223 217 213 223 217 209 211 205 196 197 197 187 182 192 183 167 157 163 158 161 153 156 151 151 153 152 152 155 148 142 141 144 144 142 136 134 138 140 131 133
116 158 192 175 178 189 201 187 60 100 103 184 195 183 192 196 185 192 170 166 220 212 172 219 222 225 222 239 295 302 139 226 291 306 327 320 294 278 275 290 290 278 264 251 239 240 261 232 220 219 215 213 207 208 204 195 196 189 170 167 157 164 160 161 154 153 154 155 155 148 154 156 155 152 145 145 142 138 140 138 136 139 140 142 137 137
112 172 215 208 213 337 84 146 154 148 172 189 160 185 190 192 192 190 191 216 172 68 238 233 228 254 245 196 297 292 297 178 183 266 282 294 301 296 299 303 301 288 275 261 245 228 226 230 228 221 219 215 217 210 215 208 199 187 174 172 167 155 159 155 152 151 150 150 151 155 153 154 145 143 140 134 135 140 136 133 134 132 131 135 137 139
159 199 198 124 265 354 102 141 159 165 174 170 179 184 185 192 190 200 216 212 119 200 228 252 184 233 248 142 213 249 281 283 219 221 256 257 287 304 317 319 297 277 267 252 247 236 231 231 224 218 214 214 205 206 204 200 199 189 192 171 164 158 167 154 147 147 148 154 153 152 141 133 125 121 127 131 131 133 133 129 128 128 130 131 129 130
122 328 111 115 77 28 7 143 150 137 122 150 184 187 193 186 201 209 220 208 211 226 244 262 264 258 249 232 193 204 226 261 269 200 278 294 275 318 331 309 299 277 254 252 243 234 230 232 228 224 218 211 207 203 196 195 193 187 179 174 169 166 161 151 162 154 153 156 147 135 131 131 131 133 131 133 135 132 115 114 128 130 129 128 124 125
121 248 122 123 85 0 354 54 96 142 140 177 205 199 197 201 207 211 216 219 228 253 251 277 300 279 233 196 243 275 267 258 264 277 245 240 249 257 275 274 273 282 270 249 244 236 232 230 229 225 219 218 209 204 196 194 189 181 180 177 175 179 171 165 165 165 158 151 143 137 133 132 134 135 136 133 127 125 131 131 131 129 128 127 133 138
76 169 43 101 93 358 329 111 85 87 136 176 206 209 206 198 207 212 214 214 205 227 228 249 265 254 108 180 222 251 272 268 266 274 285 270 201 206 227 248 261 265 268 261 248 231 228 227 224 221 221 215 208 201 197 191 183 177 190 179 182 176 163 170 170 164 160 144 142 141 142 139 137 137 134 126 133 136 133 132 132 134 137 137 141 141
127 120 112 99 104 250 268 141 114 95 61 338 257 222 200 199 208 205 221 211 214 216 199 222 234 228 174 167 184 229 234 252 260 260 261 275 236 201 213 230 241 254 258 252 251 233 224 224 223 222 222 211 204 202 202 183 175 191 182 178 178 145 166 174 167 160 152 148 148 148 144 144 145 139 138 138 138 137 136 136 136 139 145 148 145 139
136 145 157 166 157 197 209 156 114 83 27 237 244 169 174 198 202 203 215 209 216 192 221 221 237 79 145 156 194 213 217 230 235 241 242 245 253 238 238 234 233 240 253 255 243 234 235 234 231 222 215 210 207 203 186 183 188 184 171 164 150 162 170 166 169 164 157 154 156 154 151 150 147 142 137 141 141 142 143 146 149 148 145 141 143 140
159 143 153 170 126 163 201 132 140 173 227 230 101 168 180 197 198 206 218 209 217 218 236 245 249 239 216 198 195 211 215 232 230 237 239 239 224 219 224 228 234 238 242 250 252 232 231 232 228 216 211 210 194 176 167 185 177 153 154 158 161 169 165 171 163 162 160 162 161 157 156 154 153 148 147 148 147 148 152 152 148 149 152 153 151 149
157 151 149 92 127 47 121 169 154 226 248 325 274 190 195 193 200 200 237 235 224 218 222 231 237 239 234 217 229 224 224 243 286 259 241 238 203 210 217 230 231 227 236 239 236 239 231 222 218 214 216 182 169 180 181 181 165 161 167 159 164 163 167 163 166 167 166 169 169 168 165 159 156 152 153 154 155 157 158 157 158 155 154 143 132 122
177 156 151 155 256 160 200 176 214 340 348 263 181 219 132 149 143 174 213 237 221 222 220 232 238 236 239 231 227 241 253 335 276 272 242 221 227 220 216 222 217 222 224 237 225 246 229 211 214 218 176 170 181 176 184 166 160 158 152 162 169 167 169 169 175 177 176 175 172 170 167 165 159 160 161 161 161 164 163 159 157 153 149 139 141 141
184 170 201 135 229 148 132 202 306 294 255 244 130 201 161 156 168 182 193 260 205 217 213 223 227 227 233 233 230 226 153 259 264 258 251 230 219 224 232 238 241 240 232 167 173 221 221 216 207 187 175 172 181 181 163 159 162 159 164 172 170 172 176 180 185 178 177 178 174 170 169 170 167 164 165 167 171 168 162 155 149 153 157 150 148 146
74 113 171 170 155 95 161 181 206 209 234 115 156 165 184 167 149 123 81 262 195 200 213 210 220 221 221 221 224 141 159 226 244 250 249 240 228 224 233 240 242 249 236 201 200 217 211 207 186 172 156 160 176 178 159 159 159 163 173 172 173 178 181 190 186 181 182 178 169 170 172 170 169 169 169 172 171 166 161 161 157 146 139 138 134 134
155 174 145 94 172 202 171 175 219 221 251 222 175 196 170 135 118 104 86 278 259 216 214 194 209 214 217 221 177 156 182 220 239 248 256 247 211 198 199 228 237 245 256 291 282 230 204 154 113 128 163 183 186 157 159 158 164 171 174 177 175 185 193 191 189 183 174 166 170 171 171 172 172 172 172 170 160 156 155 143 140 147 139 132 132 134
166 239 201 200 176 151 168 249 324 286 264 210 201 159 139 150 120 132 203 223 246 192 178 178 208 216 212 179 140 189 213 212 225 241 37 6 75 112 57 49 75 107 252 300 277 174 145 172 172 178 191 186 157 157 159 160 164 179 180 175 181 201 200 190 176 167 169 165 165 169 171 170 173 169 167 162 155 145 139 148 148 143 141 137 133 129
184 171 223 162 183 188 196 196 230 262 237 168 351 154 163 109 202 207 222 201 143 196 202 172 192 212 185 181 188 204 221 226 287 43 68 76 149 97 55 27 80 90 97 222 197 141 135 140 128 92 79 101 142 151 158 161 173 177 176 180 204 203 141 140 149 151 153 159 164 164 165 165 159 157 153 143 142 144 144 138 138 141 139 136 139 138
178 168 188 192 169 46 72 207 33 255 255 131 115 90 292 173 230 153 178 334 230 148 156 196 197 213 175 203 208 218 253 237 209 235 205 179 162 153 66 68 71 73 43 35 54 47 130 125 115 113 119 127 138 146 156 160 170 174 174 199 195 130 135 139 142 147 149 152 157 160 159 155 154 151 147 147 149 146 143 142 140 139 139 140 140 140
157 173 190 207 183 183 179 190 208 213 110 169 138 180 198 197 199 166 126 182 242 168 175 187 229 201 175 187 195 218 225 232 273 254 247 240 207 185 111 70 93 81 112 304 185 158 128 122 120 119 123 137 147 155 162 166 171 175 182 196 147 134 132 138 139 140 145 151 153 150 151 150 148 144 145 148 147 145 145 149 148 147 153 153 149 149
199 198 180 183 170 180 205 210 209 204 156 194 180 166 176 205 177 202 155 159 170 234 193 149 215 195 192 182 187 188 209 224 227 194 188 225 209 182 176 173 165 164 162 151 147 144 137 143 142 128 121 135 149 160 167 174 171 172 186 176 144 148 149 146 148 151 155 158 156 155 150 144 149 150 152 156 155 153 154 152 155 153 163 158 160 159
183 187 137 118 255 307 318 204 172 201 222 212 289 192 175 196 192 146 157 134 240 177 170 183 189 185 180 171 143 206 209 218 208 223 197 186 175 163 133 121 106 101 101 88 89 79 113 106 112 122 126 123 148 155 166 172 169 176 181 141 150 145 146 146 148 155 157 155 156 156 151 149 150 152 156 159 165 166 166 163 166 164 163 169 169 169
241 130 110 174 225 156 240 210 153 203 207 199 204 218 302 222 182 167 201 226 189 161 178 229 169 167 169 167 182 177 215 200 206 221 193 189 182 174 162 152 154 120 126 119 129 122 110 122 122 133 142 151 176 156 162 164 152 144 133 151 142 141 140 146 150 149 148 153 149 145 155 157 159 158 158 165 163 164 167 170 172 165 167 173 170 171
227 198 156 181 161 182 232 181 187 190 189 195 189 175 170 196 196 211 210 221 160 173 163 166 131 128 140 172 191 174 206 193 187 209 191 188 178 149 155 161 158 124 78 118 115 119 113 123 139 147 152 161 174 158 147 141 124 134 137 139 145 141 142 147 157 157 160 156 154 160 166 165 161 161 165 173 172 169 171 181 182 176 178 179 178 172
141 129 204 178 180 220 334 320 64 91 310 271 270 277 239 200 191 198 196 155 153 137 144 151 201 176 179 196 170 171 175 210 199 184 175 163 159 160 170 173 161 159 145 122 108 121 143 143 137 153 154 155 148 136 134 132 137 145 145 148 148 148 146 151 148 146 148 151 151 162 167 164 165 171 167 167 177 186 185 183 184 189 197 229 210 194
119 192 182 130 200 204 212 195 136 141 226 229 214 211 217 213 189 182 134 135 176 165 165 166 209 249 221 205 180 176 193 198 190 174 172 173 172 170 160 150 147 131 121 110 96 104 98 108 133 137 134 141 131 141 138 131 130 132 134 140 147 148 146 145 142 143 155 156 161 156 159 160 165 168 167 170 174 167 140 132 184 210 200 196 185 169
183 184 152 185 196 218 210 151 180 196 210 204 197 202 205 185 153 161 188 192 202 195 175 153 149 177 207 221 323 187 197 166 179 150 128 150 178 170 164 155 146 143 144 146 109 90 99 97 112 115 114 124 122 133 135 132 132 128 138 146 155 155 150 148 149 156 156 163 175 175 173 170 170 174 172 173 172 168 167 145 133 144 150 167 181 175